period_start,C,m1,H,J0,J1,J2,J3,J4,J5,JA,JB,JC,JD,JJ,JK,JN,#
2017-09-29 00:02:19,0.00,1.48,0.00,21.69,26.65,29.75,13.98,42.03,1018.00,2033.98,2984.02,2686.99,3063.00,599.83,599.31,57.64,0000 0000 0000 0000 000000
2017-09-29 00:07:21,0.00,1.48,0.00,21.69,26.65,29.75,14.01,42.42,1018.05,2033.97,2984.03,2686.99,3063.00,600.19,599.74,57.69,0000 0000 0000 0000 000000
2017-09-29 00:12:22,0.00,1.48,0.00,21.71,26.65,29.75,13.94,42.16,1018.01,2033.97,2984.00,2686.99,3063.00,599.49,598.97,57.74,0000 0000 0000 0000 000000
2017-09-29 00:17:23,0.00,1.48,0.00,21.74,26.65,29.75,14.01,42.38,1018.00,2033.97,2984.00,2686.99,3062.99,600.12,599.49,57.79,0000 0000 0000 0000 000000
2017-09-29 00:22:24,-0.00,1.48,0.00,21.70,26.65,29.73,14.05,42.33,1018.07,2033.95,2984.00,2686.99,3062.98,599.94,599.53,57.84,0000 0000 0000 0000 000000
2017-09-29 00:27:25,-0.00,1.48,0.00,21.68,26.65,29.72,14.04,42.21,1018.07,2033.89,2984.00,2686.99,3062.97,599.93,599.40,57.89,0000 0000 0000 0000 000000
2017-09-29 00:32:26,0.00,1.48,0.00,21.68,26.64,29.72,14.12,42.49,1018.08,2033.94,2983.98,2686.99,3062.97,600.39,599.95,57.94,0000 0000 0000 0000 000000
2017-09-29 00:37:28,0.00,1.48,0.00,21.67,26.64,29.73,14.07,42.38,1018.08,2033.95,2983.97,2686.98,3062.86,600.15,599.84,57.99,0000 0000 0000 0000 000000
2017-09-29 00:42:29,0.00,1.48,0.00,21.68,26.63,29.74,14.02,42.38,1018.08,2033.92,2983.88,2686.98,3062.52,600.22,599.55,58.04,0000 0000 0000 0000 000000
2017-09-29 00:47:30,0.01,1.48,0.00,21.72,26.63,29.74,13.99,42.42,1018.08,2033.96,2983.33,2686.98,3062.29,599.57,599.08,58.09,0000 0000 0000 0000 000000
2017-09-29 00:52:31,0.00,1.48,0.00,21.70,26.63,29.73,14.01,42.46,1018.08,2033.97,2983.19,2686.99,3062.10,599.84,599.27,58.14,0000 0000 0000 0000 000000
2017-09-29 00:57:33,-0.00,1.48,0.00,21.70,26.62,29.72,14.01,42.22,1018.08,2033.95,2983.10,2686.99,3062.04,599.59,599.17,58.19,0000 0000 0000 0000 000000
2017-09-29 01:02:34,0.00,1.48,0.00,21.73,26.62,29.73,14.02,42.27,1018.08,2033.96,2983.05,2686.99,3062.02,599.81,599.15,58.24,0000 0000 0000 0000 000000
2017-09-29 01:07:35,-0.00,1.48,0.00,21.73,26.62,29.73,13.96,42.29,1018.08,2033.95,2983.04,2686.99,3062.01,599.71,599.33,58.29,0000 0000 0000 0000 000000
2017-09-29 01:12:36,-0.00,1.48,0.00,21.76,26.62,29.72,14.01,42.19,1018.08,2033.95,2983.00,2686.99,3062.00,600.08,599.52,58.34,0000 0000 0000 0000 000000
2017-09-29 01:17:38,0.00,1.48,0.00,21.73,26.62,29.70,13.97,42.17,1018.07,2033.93,2983.00,2686.97,3062.00,599.88,599.28,58.39,0000 0000 0000 0000 000000
2017-09-29 01:22:39,-0.01,1.48,0.00,21.74,26.62,29.71,14.07,41.94,1018.07,2033.86,2982.94,2686.97,3061.98,599.95,599.32,58.44,0000 0000 0000 0000 000000
2017-09-29 01:27:40,0.02,1.48,0.00,21.81,26.62,29.72,14.03,41.97,1018.06,2033.83,2982.45,2686.91,3061.96,600.28,599.57,58.49,0000 0000 0000 0000 000000
2017-09-29 01:32:41,0.01,1.48,0.00,21.76,26.62,29.72,14.07,42.37,1018.08,2033.95,2982.02,2686.78,3061.92,600.44,599.85,58.54,0000 0000 0000 0000 000000
2017-09-29 01:37:42,0.02,1.48,0.00,21.78,26.62,29.71,13.98,42.13,1018.08,2033.97,2982.00,2686.33,3061.48,599.89,599.33,58.59,0000 0000 0000 0000 000000
2017-09-29 01:42:43,-0.00,1.48,0.00,21.79,26.62,29.72,14.04,42.03,1018.07,2033.91,2981.99,2686.23,3061.14,599.99,599.21,58.65,0000 0000 0000 0000 000000
2017-09-29 01:47:45,0.01,1.48,0.00,21.74,26.62,29.73,13.98,42.00,1018.08,2033.94,2981.99,2686.27,3061.04,600.19,599.69,58.70,0000 0000 0000 0000 000000
2017-09-29 01:52:46,-0.01,1.48,0.00,21.76,26.62,29.72,14.02,41.98,1018.07,2033.92,2981.97,2686.43,3061.03,600.22,599.58,58.75,0000 0000 0000 0000 000000
2017-09-29 01:57:47,-0.01,1.48,0.00,21.75,26.62,29.71,14.11,42.08,1018.06,2033.91,2981.96,2686.60,3061.00,600.27,599.57,58.80,0000 0000 0000 0000 000000
2017-09-29 02:02:49,0.02,1.48,0.00,21.73,26.62,29.73,14.01,42.08,1018.08,2033.93,2981.84,2686.39,3061.01,600.10,599.54,58.85,0000 0000 0000 0000 000000
2017-09-29 02:07:50,-0.00,1.48,0.00,21.76,26.62,29.71,14.02,42.03,1018.08,2033.85,2981.44,2686.30,3061.00,599.89,599.37,58.90,0000 0000 0000 0000 000000
2017-09-29 02:12:51,0.01,1.48,0.00,21.76,26.62,29.72,14.00,42.54,1018.08,2033.82,2981.03,2686.08,3061.00,600.49,599.97,58.95,0000 0000 0000 0000 000000
2017-09-29 02:17:52,0.01,1.48,0.00,21.75,26.62,29.71,13.95,42.40,1018.08,2033.87,2981.00,2686.02,3060.99,599.52,599.01,59.00,0000 0000 0000 0000 000000
2017-09-29 02:22:53,0.01,1.49,0.00,21.76,26.62,29.71,14.07,42.17,1018.07,2033.95,2980.99,2686.01,3060.95,599.95,599.31,59.05,0000 0000 0000 0000 000000
2017-09-29 02:27:55,0.00,1.49,0.00,21.73,26.62,29.72,14.00,42.02,1018.08,2033.97,2980.98,2686.03,3060.90,600.04,599.50,59.10,0000 0000 0000 0000 000000
2017-09-29 02:32:56,0.00,1.49,0.00,21.71,26.62,29.71,14.04,42.04,1018.08,2033.91,2980.97,2686.03,3060.49,600.24,599.67,59.15,0000 0000 0000 0000 000000
2017-09-29 02:37:57,0.00,1.49,0.00,21.73,26.62,29.71,14.02,42.12,1018.08,2033.88,2980.88,2686.02,3060.09,600.31,599.77,59.20,0000 0000 0000 0000 000000
2017-09-29 02:42:58,0.00,1.49,0.00,21.72,26.62,29.72,14.09,42.08,1018.08,2033.93,2980.88,2686.01,3060.06,600.22,599.81,59.25,0000 0000 0000 0000 000000
2017-09-29 02:47:59,0.01,1.49,0.00,21.73,26.62,29.72,14.03,42.08,1018.08,2033.84,2980.24,2686.00,3060.01,600.04,599.45,59.30,0000 0000 0000 0000 000000
2017-09-29 02:53:00,0.01,1.49,0.00,21.73,26.62,29.72,14.02,42.02,1018.08,2033.94,2980.01,2686.00,3060.01,599.98,599.49,59.35,0000 0000 0000 0000 000000
2017-09-29 02:58:01,-0.00,1.49,0.00,21.72,26.62,29.72,14.00,42.08,1018.08,2033.95,2980.00,2686.00,3060.00,600.01,599.46,59.40,0000 0000 0000 0000 000000
2017-09-29 03:03:03,-0.00,1.49,0.00,21.74,26.62,29.72,14.06,42.10,1018.08,2033.94,2980.00,2686.00,3060.00,600.32,599.73,59.45,0000 0000 0000 0000 000000
2017-09-29 03:08:04,-0.02,1.49,0.00,21.75,26.62,29.72,13.99,41.93,1018.08,2033.73,2980.00,2686.00,3059.98,600.18,599.65,59.50,0000 0000 0000 0000 000000
2017-09-29 03:13:05,-0.01,1.49,0.00,21.76,26.62,29.71,14.00,42.16,1018.08,2033.58,2979.97,2686.00,3059.93,600.27,599.58,59.55,0000 0000 0000 0000 000000
2017-09-29 03:18:07,0.03,1.48,0.00,21.80,26.62,29.71,14.05,42.16,1018.08,2033.54,2979.89,2686.00,3059.82,600.01,599.29,59.61,0000 0000 0000 0000 000000
2017-09-29 03:23:08,0.02,1.49,0.00,21.78,26.62,29.71,13.98,42.02,1018.08,2033.82,2979.59,2685.99,3059.80,599.68,599.06,59.66,0000 0000 0000 0000 000000
2017-09-29 03:28:09,0.01,1.49,0.00,21.76,26.62,29.71,13.97,41.97,1018.08,2033.76,2979.10,2685.99,3059.33,599.61,599.12,59.71,0000 0000 0000 0000 000000
2017-09-29 03:33:11,0.01,1.49,0.00,21.81,26.62,29.72,14.03,41.94,1018.07,2033.88,2979.00,2685.99,3059.23,599.94,599.15,59.76,0000 0000 0000 0000 000000
2017-09-29 03:38:12,0.01,1.49,0.00,21.79,26.62,29.71,13.98,41.95,1018.07,2033.96,2979.00,2685.98,3059.06,599.88,599.23,59.81,0000 0000 0000 0000 000000
2017-09-29 03:43:13,-0.00,1.49,0.00,21.75,26.62,29.71,14.03,41.92,1018.07,2033.95,2979.00,2685.97,3059.02,600.33,599.83,59.86,0000 0000 0000 0000 000000
2017-09-29 03:48:14,-0.00,1.49,0.00,21.78,26.62,29.72,13.99,41.76,1018.08,2033.94,2979.00,2685.97,3059.01,599.82,599.15,59.91,0000 0000 0000 0000 000000
2017-09-29 03:53:16,-0.00,1.49,0.00,21.79,26.62,29.72,13.99,41.70,1018.07,2033.90,2978.92,2685.94,3059.00,600.24,599.43,59.96,0000 0000 0000 0000 000000
2017-09-29 03:58:17,0.03,1.49,0.00,21.80,26.63,29.72,13.54,40.18,1018.03,2033.93,2978.33,2685.86,3059.00,586.24,585.55,60.01,0000 0000 0000 0000 000009
2017-09-29 04:03:18,0.04,0.10,0.00,21.81,26.65,29.71,12.68,41.83,1018.07,2034.95,3488.10,3075.69,3528.55,545.68,545.16,0.01,0000 0000 0000 0000 000000
2017-09-29 04:08:20,0.04,0.00,0.00,21.78,26.65,29.72,14.00,45.71,1018.00,2035.01,3521.13,3102.95,3561.55,599.76,599.14,0.06,0000 0000 0000 0000 000000
2017-09-29 04:13:21,0.03,0.00,0.00,21.81,26.65,29.74,14.14,45.88,1017.76,2035.00,3520.18,3102.49,3560.98,600.23,599.44,0.11,0000 0000 0000 0000 000000
2017-09-29 04:18:22,0.03,0.00,0.00,21.82,26.65,29.74,13.99,45.68,1017.66,2035.01,3519.96,3102.06,3560.47,599.74,598.81,0.16,0000 0000 0000 0000 000000
2017-09-29 04:23:24,0.02,0.00,0.00,21.79,26.65,29.75,14.09,45.77,1017.63,2035.00,3519.20,3102.02,3560.01,600.51,599.59,0.21,0000 0000 0000 0000 000000
2017-09-29 04:28:25,0.01,0.00,0.00,21.78,26.65,29.75,14.05,45.67,1017.62,2035.00,3519.00,3102.00,3559.99,599.95,598.95,0.26,0000 0000 0000 0000 000000
2017-09-29 04:33:26,0.00,0.00,0.00,21.79,26.65,29.75,14.07,45.68,1017.60,2035.02,3518.97,3102.00,3559.86,599.90,598.98,0.31,0000 0000 0000 0000 000000
2017-09-29 04:38:28,0.01,0.00,0.00,21.79,26.65,29.76,14.09,45.72,1017.59,2035.02,3518.81,3102.00,3559.39,599.87,599.02,0.36,0000 0000 0000 0000 000000
2017-09-29 04:43:29,0.02,0.00,0.00,21.80,26.65,29.77,14.08,45.83,1017.59,2035.11,3518.07,3101.98,3559.03,600.08,599.04,0.41,0000 0000 0000 0000 000000
2017-09-29 04:48:30,0.06,0.00,0.00,21.79,26.65,29.76,14.09,45.66,1017.59,2035.59,3517.91,3101.90,3559.00,599.78,599.02,0.46,0000 0000 0000 0000 000000
2017-09-29 04:53:31,0.03,0.01,0.00,21.80,26.65,29.77,14.04,45.70,1017.59,2035.86,3517.25,3101.44,3558.92,599.76,598.75,0.51,0000 0000 0000 0000 000000
2017-09-29 04:58:32,0.02,0.01,0.00,21.80,26.65,29.76,14.17,45.90,1017.60,2035.93,3517.04,3101.20,3558.34,600.24,599.21,0.56,0000 0000 0000 0000 000000
2017-09-29 05:03:33,-0.00,0.01,0.00,21.83,26.66,29.77,14.04,45.67,1017.60,2035.89,3517.00,3101.02,3558.00,600.27,599.23,0.61,0000 0000 0000 0000 000000
2017-09-29 05:08:35,-0.03,0.01,0.00,21.82,26.67,29.77,14.09,45.75,1017.60,2035.68,3516.98,3101.01,3557.97,600.25,599.16,0.66,0000 0000 0000 0000 000000
2017-09-29 05:13:36,-0.02,0.01,0.00,21.82,26.67,29.77,14.10,45.93,1017.60,2035.31,3516.92,3101.00,3557.50,600.16,599.16,0.71,0000 0000 0000 0000 000000
2017-09-29 05:18:38,-0.01,0.01,0.00,21.87,26.67,29.79,14.09,45.88,1017.62,2035.08,3516.87,3101.00,3557.06,600.27,599.28,0.76,0000 0000 0000 0000 000000
2017-09-29 05:23:39,0.01,0.01,0.00,21.85,26.67,29.79,14.12,45.74,1017.72,2035.04,3516.39,3101.00,3557.00,600.33,599.22,0.81,0000 0000 0000 0000 000000
2017-09-29 05:28:40,0.01,0.01,0.00,21.83,26.67,29.79,14.00,45.56,1017.87,2035.14,3516.01,3101.00,3556.99,599.71,599.01,0.86,0000 0000 0000 0000 000000
2017-09-29 05:33:41,-0.01,0.01,0.00,21.84,26.67,29.80,14.06,45.46,1018.01,2035.04,3516.00,3100.99,3556.95,600.08,599.16,0.91,0000 0000 0000 0000 000000
2017-09-29 05:38:43,0.01,0.01,0.00,21.83,26.67,29.79,14.04,45.53,1018.08,2035.03,3515.98,3100.97,3556.40,599.95,599.21,0.96,0000 0000 0000 0000 000000
2017-09-29 05:43:44,0.00,0.01,0.00,21.84,26.69,29.81,13.99,45.42,1018.08,2035.04,3515.86,3100.96,3556.05,599.92,599.09,1.01,0000 0000 0000 0000 000000
2017-09-29 05:48:45,0.00,0.01,0.00,21.84,26.69,29.79,14.07,45.51,1018.08,2035.02,3515.68,3100.97,3556.01,599.89,599.11,1.06,0000 0000 0000 0000 000000
2017-09-29 05:53:46,0.01,0.01,0.00,21.84,26.70,29.81,14.09,45.67,1018.08,2035.01,3515.26,3100.92,3556.00,599.67,598.97,1.11,0000 0000 0000 0000 000000
2017-09-29 05:58:47,-0.00,0.01,0.00,21.83,26.70,29.79,14.13,45.62,1018.08,2035.00,3515.03,3100.86,3555.99,599.95,599.30,1.16,0000 0000 0000 0000 000000
2017-09-29 06:03:49,0.01,0.01,0.00,21.84,26.70,29.81,14.02,45.32,1018.08,2035.00,3515.00,3100.56,3555.86,600.16,599.29,1.21,0000 0000 0000 0000 000000
2017-09-29 06:08:51,0.00,0.01,0.00,21.83,26.70,29.82,14.11,45.67,1018.08,2035.00,3514.99,3100.46,3555.45,600.28,599.49,1.26,0000 0000 0000 0000 000000
2017-09-29 06:13:52,0.01,0.01,0.00,21.85,26.70,29.82,14.09,45.54,1018.08,2035.00,3514.96,3100.34,3555.06,600.16,599.38,1.31,0000 0000 0000 0000 000000
2017-09-29 06:18:54,0.01,0.01,0.00,21.88,26.70,29.81,14.13,45.24,1018.10,2035.00,3514.74,3100.13,3555.01,600.13,599.24,1.36,0000 0000 0000 0000 000000
2017-09-29 06:23:54,0.01,0.01,0.00,21.86,26.70,29.82,14.00,45.16,1018.09,2035.01,3514.10,3100.03,3555.00,600.13,599.27,1.41,0000 0000 0000 0000 000000
2017-09-29 06:28:56,-0.00,0.01,0.00,21.86,26.70,29.83,14.08,45.24,1018.15,2035.01,3514.00,3100.01,3555.00,599.63,598.94,1.46,0000 0000 0000 0000 000000
2017-09-29 06:33:57,0.00,0.01,0.00,21.90,26.71,29.82,14.10,45.45,1018.33,2035.02,3514.00,3100.01,3554.98,600.34,599.57,1.51,0000 0000 0000 0000 000000
2017-09-29 06:38:58,0.00,0.01,0.00,21.88,26.71,29.81,14.11,45.38,1018.25,2035.03,3513.99,3100.01,3554.83,600.67,599.87,1.56,0000 0000 0000 0000 000000
2017-09-29 06:43:59,0.01,0.01,0.00,21.89,26.71,29.83,13.94,45.33,1018.21,2035.00,3513.95,3100.00,3554.18,599.05,598.30,1.61,0000 0000 0000 0000 000000
2017-09-29 06:49:01,0.01,0.01,0.00,21.90,26.72,29.81,14.05,45.20,1018.37,2035.01,3513.46,3100.00,3554.07,600.01,599.30,1.66,0000 0000 0000 0000 000000
2017-09-29 06:54:02,-0.00,0.01,0.00,21.86,26.72,29.83,14.10,45.27,1018.46,2035.01,3513.43,3100.00,3554.01,600.41,599.92,1.71,0000 0000 0000 0000 000000
2017-09-29 06:59:03,0.00,0.01,0.00,21.87,26.72,29.83,14.07,45.16,1018.47,2035.01,3513.33,3100.00,3554.00,600.21,599.60,1.76,0000 0000 0000 0000 000000
2017-09-29 07:04:05,0.00,0.01,0.00,21.90,26.72,29.83,14.05,45.27,1018.52,2035.00,3513.14,3100.00,3554.00,599.92,599.28,1.81,0000 0000 0000 0000 000000
2017-09-29 07:09:06,0.00,0.01,0.00,21.85,26.72,29.84,14.10,45.18,1018.57,2035.01,3513.04,3100.00,3554.00,600.21,599.57,1.86,0000 0000 0000 0000 000000
2017-09-29 07:14:07,0.00,0.01,0.00,21.85,26.72,29.84,14.03,45.24,1018.57,2035.00,3513.00,3100.00,3553.97,599.84,599.20,1.91,0000 0000 0000 0000 000000
2017-09-29 07:19:08,0.00,0.01,0.00,21.85,26.72,29.84,14.06,45.00,1018.57,2035.02,3513.00,3100.00,3553.96,599.84,599.26,1.96,0000 0000 0000 0000 000000
2017-09-29 07:24:09,0.00,0.01,0.00,21.81,26.72,29.84,14.02,45.02,1018.57,2035.01,3512.99,3100.00,3553.87,600.23,599.80,2.01,0000 0000 0000 0000 000000
2017-09-29 07:29:10,0.01,0.01,0.00,21.84,26.72,29.85,13.99,45.42,1018.57,2035.01,3512.97,3100.00,3553.35,599.68,599.28,2.06,0000 0000 0000 0000 000000
2017-09-29 07:34:12,0.00,0.01,0.00,21.87,26.72,29.84,14.06,45.13,1018.56,2035.01,3512.90,3100.00,3553.18,600.14,599.54,2.11,0000 0000 0000 0000 000000
2017-09-29 07:39:13,0.01,0.01,0.00,21.84,26.72,29.84,14.08,45.18,1018.57,2035.00,3512.22,3100.00,3553.01,600.12,599.64,2.17,0000 0000 0000 0000 000000
2017-09-29 07:44:14,0.00,0.01,0.00,21.84,26.72,29.84,14.08,45.18,1018.57,2035.02,3512.08,3099.98,3553.00,600.03,599.56,2.22,0000 0000 0000 0000 000000
2017-09-29 07:49:15,-0.00,0.01,0.00,21.87,26.72,29.83,14.09,45.26,1018.57,2035.00,3512.06,3099.99,3553.00,600.20,599.61,2.27,0000 0000 0000 0000 000000
2017-09-29 07:54:16,0.00,0.01,0.00,21.81,26.72,29.83,14.02,45.08,1018.57,2035.01,3512.01,3099.98,3553.00,599.79,599.33,2.32,0000 0000 0000 0000 000000
2017-09-29 07:59:18,0.00,0.01,0.00,21.81,26.72,29.85,14.12,45.75,1018.57,2035.00,3512.00,3099.97,3552.91,600.49,600.20,2.37,0000 0000 0000 0000 000000
2017-09-29 08:04:19,0.02,0.01,0.00,21.82,26.71,29.84,14.01,45.23,1018.72,2035.02,3511.71,3099.88,3552.61,599.51,599.14,2.42,0000 0000 0000 0000 000000
2017-09-29 08:09:20,0.00,0.02,0.00,21.81,26.70,29.84,14.06,45.19,1018.72,2035.01,3511.43,3099.81,3552.24,599.69,599.41,2.47,0000 0000 0000 0000 000000
2017-09-29 08:14:21,0.01,0.01,0.00,21.82,26.71,29.83,13.97,45.18,1018.64,2035.04,3511.62,3099.92,3552.05,599.32,599.01,2.52,0000 0000 0000 0000 000000
2017-09-29 08:19:22,-0.00,0.02,0.00,21.85,26.70,29.82,14.03,45.12,1018.72,2035.02,3511.28,3099.95,3552.00,600.19,599.85,2.57,0000 0000 0000 0000 000000
2017-09-29 08:24:23,0.00,0.01,0.00,21.81,26.70,29.84,14.14,45.16,1018.70,2035.00,3511.35,3099.97,3552.00,600.25,599.76,2.62,0000 0000 0000 0000 000000
2017-09-29 08:29:25,0.00,0.02,0.00,21.80,26.70,29.84,14.04,45.10,1018.80,2035.01,3511.20,3099.98,3552.00,600.00,599.76,2.67,0000 0000 0000 0000 000000
2017-09-29 08:34:26,0.00,0.02,0.00,21.84,26.70,29.82,14.04,45.16,1018.95,2035.01,3511.05,3099.97,3552.00,599.60,599.39,2.72,0000 0000 0000 0000 000000
2017-09-29 08:39:27,0.00,0.02,0.00,21.81,26.70,29.82,14.04,45.15,1019.02,2035.01,3511.02,3099.97,3552.00,599.75,599.68,2.77,0000 0000 0000 0000 000000
2017-09-29 08:44:29,0.00,0.02,0.00,21.79,26.70,29.81,14.07,44.99,1019.01,2035.01,3511.00,3099.97,3551.99,600.11,600.05,2.82,0000 0000 0000 0000 000000
2017-09-29 08:49:30,0.00,0.02,0.00,21.77,26.70,29.80,14.05,45.13,1019.03,2035.01,3511.00,3099.97,3551.98,599.99,600.02,2.87,0000 0000 0000 0000 000000
2017-09-29 08:54:31,0.00,0.02,0.00,21.75,26.70,29.80,14.06,45.00,1019.03,2035.02,3510.98,3099.97,3551.89,599.95,599.85,2.92,0000 0000 0000 0000 000000
2017-09-29 08:59:32,0.01,0.02,0.00,21.75,26.70,29.82,14.04,45.00,1019.05,2035.01,3510.96,3099.96,3551.61,599.79,599.79,2.97,0000 0000 0000 0000 000000
2017-09-29 09:04:33,0.01,0.02,0.00,21.77,26.70,29.82,14.07,45.18,1019.05,2035.03,3510.80,3099.94,3551.31,600.01,599.95,3.02,0000 0000 0000 0000 000000
2017-09-29 09:09:34,0.02,0.02,0.00,21.76,26.70,29.83,14.10,45.33,1019.06,2035.02,3510.08,3099.74,3551.03,599.84,599.81,3.07,0000 0000 0000 0000 000000
2017-09-29 09:14:35,-0.01,0.02,0.00,21.72,26.69,29.82,14.01,45.07,1019.06,2035.01,3510.04,3099.84,3551.00,599.79,599.81,3.12,0000 0000 0000 0000 000000
2017-09-29 09:19:36,-0.00,0.02,0.00,21.73,26.68,29.80,14.08,44.96,1019.06,2035.03,3510.01,3099.92,3551.00,599.86,599.94,3.17,0000 0000 0000 0000 000000
2017-09-29 09:24:38,0.00,0.02,0.00,21.71,26.67,29.81,14.16,45.08,1019.06,2035.03,3510.00,3099.94,3550.99,600.32,600.39,3.22,0000 0000 0000 0000 000000
2017-09-29 09:29:39,-0.00,0.02,0.00,21.69,26.67,29.81,14.13,45.02,1019.06,2035.04,3510.00,3099.97,3550.98,600.44,600.45,3.27,0000 0000 0000 0000 000000
2017-09-29 09:34:40,0.01,0.02,0.00,21.67,26.67,29.81,14.01,45.08,1019.06,2035.01,3510.00,3099.80,3550.66,599.61,599.78,3.32,0000 0000 0000 0000 000000
2017-09-29 09:39:42,0.00,0.02,0.00,21.64,26.67,29.82,14.15,45.18,1019.06,2035.01,3509.98,3099.76,3550.38,600.24,600.58,3.37,0000 0000 0000 0000 000000
2017-09-29 09:44:43,0.00,0.02,0.00,21.65,26.67,29.82,14.06,45.23,1019.06,2035.01,3509.97,3099.76,3550.19,600.10,600.26,3.42,0000 0000 0000 0000 000000
2017-09-29 09:49:44,0.02,0.02,0.00,21.66,26.67,29.82,14.02,44.98,1019.06,2035.01,3509.45,3099.38,3550.02,599.38,599.49,3.47,0000 0000 0000 0000 000000
2017-09-29 09:54:45,0.01,0.02,0.00,21.64,26.66,29.80,14.14,45.16,1019.06,2035.02,3509.03,3099.26,3550.00,600.18,600.41,3.52,0000 0000 0000 0000 000000
2017-09-29 09:59:47,0.00,0.02,0.00,21.67,26.65,29.80,14.02,45.12,1019.06,2035.06,3509.00,3099.18,3550.00,600.09,600.26,3.57,0000 0000 0000 0000 000000
2017-09-29 10:04:48,-0.00,0.02,0.00,21.65,26.65,29.77,14.12,45.12,1019.06,2035.08,3509.00,3099.23,3550.00,600.20,600.41,3.62,0000 0000 0000 0000 000000
2017-09-29 10:09:49,0.00,0.02,0.00,21.63,26.65,29.79,14.06,45.14,1019.06,2035.08,3508.99,3099.12,3549.96,599.84,600.11,3.67,0000 0000 0000 0000 000000
2017-09-29 10:14:50,0.00,0.02,0.00,21.66,26.65,29.82,14.09,45.05,1019.07,2035.08,3508.97,3099.06,3549.82,599.77,599.96,3.72,0000 0000 0000 0000 000000
2017-09-29 10:19:52,-0.00,0.02,0.00,21.65,26.65,29.79,14.10,45.05,1019.06,2035.07,3508.97,3099.16,3549.74,600.02,600.22,3.77,0000 0000 0000 0000 000000
2017-09-29 10:24:53,0.00,0.02,0.00,21.60,26.64,29.81,14.07,44.98,1019.06,2035.08,3508.93,3099.20,3549.48,599.96,600.30,3.82,0000 0000 0000 0000 000000
2017-09-29 10:29:54,0.02,0.02,0.00,21.65,26.63,29.78,14.05,45.02,1019.11,2035.09,3508.29,3099.08,3549.14,600.17,600.37,3.87,0000 0000 0000 0000 000000
2017-09-29 10:34:55,0.00,0.02,0.00,21.63,26.62,29.75,14.11,45.15,1019.09,2035.20,3508.32,3099.16,3549.08,600.16,600.42,3.92,0000 0000 0000 0000 000000
2017-09-29 10:39:56,0.00,0.02,0.00,21.60,26.62,29.75,14.04,44.99,1019.07,2035.12,3508.22,3099.22,3549.02,599.76,600.18,3.97,0000 0000 0000 0000 000000
2017-09-29 10:44:58,-0.00,0.02,0.00,21.62,26.62,29.77,14.02,45.02,1019.07,2035.10,3508.15,3099.40,3549.01,599.72,599.94,4.02,0000 0000 0000 0000 000000
2017-09-29 10:49:59,0.01,0.02,0.00,21.61,26.62,29.76,14.12,45.10,1019.07,2035.17,3508.05,3099.34,3549.00,600.08,600.33,4.07,0000 0000 0000 0000 000000
2017-09-29 10:55:00,-0.00,0.02,0.00,21.60,26.60,29.74,14.05,45.05,1019.06,2035.22,3508.01,3099.42,3549.00,600.11,600.42,4.12,0000 0000 0000 0000 000000
2017-09-29 11:00:02,0.01,0.02,0.00,21.60,26.60,29.73,14.08,45.10,1019.06,2035.38,3508.01,3099.53,3549.00,600.16,600.44,4.17,0000 0000 0000 0000 000000
2017-09-29 11:05:03,0.01,0.02,0.00,21.60,26.60,29.74,14.13,45.16,1019.06,2035.53,3508.00,3099.61,3549.00,600.04,600.31,4.22,0000 0000 0000 0000 000000
2017-09-29 11:10:04,-0.00,0.02,0.00,21.61,26.60,29.72,14.06,45.12,1019.06,2035.60,3507.99,3099.52,3548.99,599.75,600.05,4.27,0000 0000 0000 0000 000000
2017-09-29 11:15:05,0.00,0.02,0.00,21.59,26.59,29.73,14.11,45.08,1019.06,2035.64,3507.98,3099.44,3548.98,600.06,600.34,4.32,0000 0000 0000 0000 000000
2017-09-29 11:20:07,0.01,0.02,0.00,21.57,26.57,29.72,14.13,45.19,1019.06,2035.59,3507.97,3099.41,3548.96,600.16,600.53,4.37,0000 0000 0000 0000 000000
2017-09-29 11:25:08,0.02,0.02,0.00,21.59,26.57,29.71,14.04,45.08,1019.06,2035.82,3507.90,3099.36,3548.96,599.90,600.29,4.42,0000 0000 0000 0000 000000
2017-09-29 11:30:09,-0.01,0.02,0.00,21.56,26.57,29.71,14.14,45.15,1019.06,2035.77,3507.94,3099.61,3548.84,600.00,600.35,4.47,0000 0000 0000 0000 000000
2017-09-29 11:35:10,0.03,0.03,0.00,21.52,26.57,29.70,14.13,45.15,1019.06,2035.90,3507.68,3099.63,3548.63,599.89,600.40,4.52,0000 0000 0000 0000 000000
2017-09-29 11:40:12,0.02,0.02,0.00,21.55,26.57,29.70,14.07,45.04,1019.06,2035.88,3507.40,3099.64,3548.40,599.81,600.29,4.58,0000 0000 0000 0000 000000
2017-09-29 11:45:13,-0.00,0.03,0.00,21.54,26.57,29.69,14.12,45.01,1019.06,2035.98,3507.07,3099.70,3548.36,600.03,600.44,4.63,0000 0000 0000 0000 000000
2017-09-29 11:50:14,-0.00,0.03,0.00,21.53,26.56,29.71,14.00,44.94,1019.06,2035.96,3507.04,3099.82,3548.14,599.95,600.42,4.68,0000 0000 0000 0000 000000
2017-09-29 11:55:16,0.00,0.03,0.00,21.56,26.55,29.68,14.10,45.05,1019.06,2035.99,3507.01,3099.76,3548.01,599.82,600.19,4.73,0000 0000 0000 0000 000000
2017-09-29 12:00:17,0.00,0.03,0.00,21.53,26.55,29.68,14.00,45.00,1019.07,2035.98,3507.00,3099.74,3548.00,599.39,599.88,4.78,0000 0000 0000 0000 000000
2017-09-29 12:05:18,-0.00,0.03,0.00,21.56,26.55,29.68,14.18,44.92,1019.06,2035.98,3507.00,3099.78,3548.00,600.21,600.55,4.83,0000 0000 0000 0000 000000
2017-09-29 12:10:19,-0.00,0.03,0.00,21.58,26.54,29.67,14.07,44.88,1019.06,2035.95,3506.99,3099.79,3547.99,600.00,600.45,4.88,0000 0000 0000 0000 000000
2017-09-29 12:15:21,-0.00,0.03,0.00,21.54,26.53,29.68,14.20,45.07,1019.05,2035.97,3506.99,3099.84,3547.98,600.34,600.82,4.93,0000 0000 0000 0000 000000
2017-09-29 12:20:22,0.00,0.03,0.00,21.56,26.52,29.64,14.09,44.95,1019.04,2035.98,3506.94,3099.85,3547.99,600.08,600.48,4.98,0000 0000 0000 0000 000000
2017-09-29 12:25:23,0.02,0.03,0.00,21.55,26.52,29.63,14.13,45.01,1019.05,2035.97,3506.50,3099.68,3547.93,600.21,600.61,5.03,0000 0000 0000 0000 000000
2017-09-29 12:30:24,0.00,0.03,0.00,21.51,26.52,29.64,14.11,44.98,1019.04,2035.99,3506.05,3099.65,3547.90,599.84,600.31,5.08,0000 0000 0000 0000 000000
2017-09-29 12:35:26,0.01,0.03,0.00,21.54,26.52,29.64,14.13,44.98,1019.06,2035.98,3506.01,3099.62,3547.66,599.98,600.38,5.13,0000 0000 0000 0000 000000
2017-09-29 12:40:27,0.00,0.03,0.00,21.50,26.50,29.62,14.12,44.95,1019.06,2035.99,3506.00,3099.57,3547.33,600.08,600.64,5.18,0000 0000 0000 0000 000000
2017-09-29 12:45:28,0.01,0.03,0.00,21.51,26.50,29.64,14.16,45.04,1019.06,2035.99,3506.00,3099.64,3547.19,600.24,600.74,5.23,0000 0000 0000 0000 000000
2017-09-29 12:50:29,-0.00,0.03,0.00,21.51,26.50,29.61,14.10,44.98,1019.06,2035.99,3505.99,3099.45,3547.05,599.84,600.25,5.28,0000 0000 0000 0000 000000
2017-09-29 12:55:31,0.01,0.03,0.00,21.46,26.50,29.60,14.15,45.05,1019.06,2035.99,3505.96,3099.59,3547.01,600.33,600.96,5.33,0000 0000 0000 0000 000000